Location: Katzenstein
(51.7484°N, 10.2155°E)
Time: 14:47:31
(UTC+00:00)

NOSS 3-4 (C) - Pass Details

Date: 17 February 2020
Orbit: 897 x 1315 km, 63.4° (Epoch: 05 April)

Event Time Altitude Azimuth Distance (km) Brightness Sun altitude
Exits shadow 05:25:44 - 313° (NW) 3,186 5.7 -10.7°
Reaches altitude 10° 05:26:47 10° 316° (NW) 2,827 5.5 -10.5°
Maximum altitude 05:33:20 52° 32° (NNE) 1,354 4.4 -9.5°
Drops below altitude 10° 05:40:33 10° 108° (ESE) 3,117 7.8 -8.4°
Sets 05:43:32 0° 113° (ESE) 4,137 8.7 -7.9°
